Погода в Максатихе

Погода в Максатихе : погода сейчас, прогноз погоды и архив. Всё, что Вы хотите узнать о погоде в Максатихе!

Поиск расширенной информации на нашем сайте:

Другие новости

Новости СМИ2

Главная страница сайта

Новости сайта

03.07.2017

Напоминаем, что на нашем специализированном сайте Метеоцентр.Азия вы можете получить высокодетализированные автоматические прогнозы погоды по пунктам России, СНГ и мира в авиационном формате (включающие направление и скорость ветра, видимость, явления погоды, количество и форму облачности, нижнюю и верхнюю границу облачности).

Рекомендуем: Стирка пуховика и подушек в стиральной машине moyatehnika.ru.

Погода в Максатихе - сегодня

Время (UTC), дата Ветер
(°,м/с) 
Видим.   Явления Облачность Т
(°С)
Тd
(°С)
f(%) Тe
(°С)
Pmin
(гПа)
dP
(гПа)
Po
(мм)
O2
(г/м3)
Тmin Tmax R s Состояние
почвы
09 17.02.18 150 (ЮВ) 4000 м  слаб. снег  10/8 300 м средняя 
[Frnb|As op]
-3.4 -5.1 88 -6  1024.2  -0.9  754  308           
21 17.02.18 100 (В) 4000 м  слаб. снег  10/3 300 м средняя 
[Frnb|As op]
-5.3 -6.4 92 -5  1021.9  -0.4  753  310           
03 18.02.18 090 (В) 4000 м  слаб. снег  10/10 1000 м 
[Ns]
-5.5 -6.2 95 -7  1020.5  -0.9  752  310  -5.6       
06 18.02.18 100 (В) 4000 м  слаб. снег  10/10 1000 м 
[Ns]
-5.8 -6.6 94 -7  1020.1  -0.4  751  310  -5.8    33  равномерный
сухой снег
100% 
09 18.02.18 090 (В) 2000 м  снег  10/10 600 м 
[Ns]
-5.1 -6.3 91 -6  1019.4  -0.7  751  309           
21 18.02.18 тихо ()   4000 м  слаб. снег  10/0 средняя 
[As op]
-10.7 -11.6 93 -11  1018.5  -0.2  750  316           
03 19.02.18 тихо ()   4000 м  слаб. снег  10/0 средняя 
[As op]
-12.3 -13.4 91 -12  1017.8  -0.4  749  317  -12.7    0.5     
06 19.02.18 тихо ()   4000 м  слаб. снег  10/0 средняя 
[As op]
-10.3 -11.3 92 -10  1017.8  0.1  749  315  -12.7    0.5  38  равномерный
сухой снег
100% 
09 19.02.18 320 (СЗ) 4000 м  слаб. снег  10/0 средняя 
[As op]
-5.5 -7.8 84 -5  1017.7  0.2  749  309           
21 19.02.18 320 (СЗ) 4000 м  слаб. снег  10/0 средняя 
[As op]
-8.3 -9.1 94 -10  1018.9  -0.2  750  313           
03 20.02.18 310 (СЗ) 4000 м  слаб. снег  10/0 средняя 
[As op]
-9.4 -10.5 92 -11  1019.1  -0.2  750  314  -9.4       
06 20.02.18 340 (С) 4000 м  слаб. снег  10/0 средняя 
[As op]
-9.2 -10.4 91 -11  1019.5  0.4  751  314  -9.6    40  равномерный
сухой снег
100% 
09 20.02.18 350 (С) 10 км  слаб. ливневой снег  8/4 600 м кучево-дожд., средняя 
[Cb cap|Ac trans]
-8 -10.8 80 -10  1019.9  0.5  751  313           
21 20.02.18 300 (СЗ) 10 км  слаб. снег{ливн. осадки}  10/0 средняя 
[As op]
-12 -13.5 89 -14  1021.9  0.2  752  318           
03 21.02.18 300 (СЗ) 10 км  {снег}  3/0 верхняя 
[Ci fib]
-15.8 -17.3 88 -18  1023.7  0.6  753  324  -15.8    0.4     
09 21.02.18 290 (З) 10 км    1/1 300 м 
[St]
-10.1 -13.8 74 -13  1024  0.3  754  317           
12 21.02.18 320 (СЗ) 10 км    8/6 600 м средняя 
[Cu med, cong|Ac trans]
-7.6 -14.4 58 -11  1024  0.2  754  314           
21 21.02.18 300 (СЗ) 10 км  слаб. снег{ливн. осадки}  10/0 средняя 
[As op]
-12 -13.8 86 -14  1027.1  756  320           
03 22.02.18 280 (З) 10 км  слаб. снег  10/0 средняя 
[As op]
-18.5 -20 88 -19  1028.6  0.4  757  329  -18.5    0.2     
06 22.02.18 300 (СЗ) 10 км  {снег} [диам. изморози 3 мм]  ясно 
-16.2 -18.1 85 -19  1029.2  0.7  757  326  -20.4    0.2  40  равномерный
сухой снег
100% 
09 22.02.18 300 (СЗ) 10 км  [диам. изморози 3 мм]  1/0 верхняя 
[Ci fib]
-10.3 -14.6 71 -12  1029.1  0.4  758  319           
15 22.02.18 270 (З) 10 км    ясно 
-10.2 -14.6 70 -10  1028.1  -0.7  757  318      0.0     
21 22.02.18 270 (З) 10 км  [диам. изморози 2 мм]  ясно 
-21.4 -23.2 85 -22  1029.3  -0.2  757  333           
03 23.02.18 260 (З) 10 км  [диам. изморози 4 мм]  4/0 верхняя 
[Ci fib]
-21.6 -23.5 85 -22  1028.7  -0.5  757  333  -23.1         
06 23.02.18 тихо ()   10 км  [диам. изморози 4 мм]  4/0 верхняя 
[Ci fib]
-20.9 -23.1 82 -21  1028.6  -0.1  757  332  -23.1      39  равномерный
сухой снег
100% 
Время (UTC), дата Ветер
(°,м/с) 
Видим.   Явления Облачность Т
(°С)
Тd
(°С)
f(%) Тe
(°С)
Pmin
(гПа)
dP
(гПа)
Po
(мм)
O2
(г/м3)
Тmin Tmax R s Состояние
почвы

Для получения пояснительной информации подведите курсор к названию столбца.

ПОГОДА в Максатихе - архив

Всё, что Вы хотите узнать о погоде в Максатихе - удобно и подробно!

Выберите нужную дату (начиная с 1 января 2015* года) и нажмите кнопку "Найти".
Будут отображены архивные сводки погоды по пункту Максатиха, начиная с указанной даты.


Отображать данные в формате CSV (для использования в таблицах Excel)


Внимание! Наш архив погоды предназначен исключительно для личного некоммерческого использования в познавательных целях. Если Вам необходимы официальные справки о состоянии погоды (для производственных, юридических, коммерческих и т.п. целей), обращайтесь в органы Росгидромета.

*Примечание: данная дата относится к архиву по метеостанциям СССР (Россия, СНГ, Балтия).
Архив по метеостанциям Зарубежной Европы и Азии (кроме Китая) хранится 10 дней, по другим регионам земного шара (Китай, Африка, Америка, Австралия, Океания) - 1 день.

Максатиха - район местоположения метеостанции


Название, широта, долгота, высота метеостанции:
Максатиха 57.8°ш. 35.9°д. 140 м над ур. моря [Российская Федерация]

Дополнительная информация

В oтличие oт бoльшинства пoгoдных сайтoв мы публикуем пoдрoбную метеoинфoрмацию в детальнoм прoфессиoнальнoм фoрмате.

Характеристики температуры и влажнoсти вoздуха измеряются на высoте 2 м в тени вдали oт зданий и деревьев.
Скoрoсть ветра измеряется на высoте 10 м (на урoвне рoста челoвека скoрoсть ветра ниже в 1.5-2 раза). Если метеoстанция нахoдится в гoрoде или в лесу, тo скoрoсть ветра занижена на 2-4 м/с пo сравнению с oткрытым местoм. Скoрoсть ветра над акватoриями крупных рек и oзёр, а также на вершинах хoлмoв на 2-5 м/с выше, чем в oбычных услoвиях.
Атмoсфернoе давление в разных тoчках местнoсти мoжет значительнo oтличаться oт давления на метеoстанции, в зависимoсти oт услoвий рельефа (при пoдъёме на 10 м давление пoнижается примернo на 1 мм рт.ст.).